LAN437 SAME-SCEL

Flight info

Callsign LAN437
Flight time N/A
Altitude 24000
Route UMKAL2G UMKAL UMKAL7C
Aircraft A321/M-SDE3FGHIRWY/LB1

Departure

Time 2026-05-05 14:19
Airport Governor Francisco Gabrielli International Airport (SAME)

Arrival

Time N/A
Airport Comodoro Arturo Merino Benítez International Airport (SCEL)
Time Latitude Longitude Altitude Speed Heading
2026-05-05 14:03 -32.82722 -68.79776 2315 ft 0 kts 271°
2026-05-05 14:07 -32.82722 -68.79775 2315 ft 1 kts 271°
2026-05-05 14:07 -32.82724 -68.79748 2316 ft 4 kts 284°
2026-05-05 14:07 -32.82734 -68.79720 2347 ft 4 kts 314°
2026-05-05 14:07 -32.82752 -68.79707 2347 ft 1 kts 360°
2026-05-05 14:08 -32.82753 -68.79707 2347 ft 0 kts 360°
2026-05-05 14:14 -32.82749 -68.79707 2342 ft 4 kts 360°
2026-05-05 14:14 -32.82692 -68.79703 2345 ft 8 kts 18°
2026-05-05 14:15 -32.82676 -68.79644 2344 ft 10 kts 91°
2026-05-05 14:15 -32.82662 -68.79546 2343 ft 12 kts 67°
2026-05-05 14:15 -32.82598 -68.79504 2343 ft 11 kts
2026-05-05 14:15 -32.82528 -68.79501 2343 ft 9 kts
2026-05-05 14:16 -32.82468 -68.79498 2343 ft 8 kts
2026-05-05 14:16 -32.82419 -68.79496 2343 ft 7 kts 360°
2026-05-05 14:16 -32.82339 -68.79496 2343 ft 17 kts
2026-05-05 14:16 -32.82198 -68.79494 2343 ft 21 kts
2026-05-05 14:17 -32.82062 -68.79492 2342 ft 16 kts
2026-05-05 14:17 -32.81961 -68.79486 2342 ft 13 kts 19°
2026-05-05 14:17 -32.81930 -68.79400 2342 ft 12 kts 90°
2026-05-05 14:17 -32.81931 -68.79305 2341 ft 12 kts 92°
2026-05-05 14:18 -32.81981 -68.79267 2342 ft 9 kts 180°
2026-05-05 14:18 -32.82040 -68.79268 2342 ft 18 kts 181°
2026-05-05 14:18 -32.82392 -68.79277 2345 ft 84 kts 181°
2026-05-05 14:18 -32.83154 -68.79290 2343 ft 136 kts 181°
2026-05-05 14:19 -32.84224 -68.79304 2513 ft 162 kts 180°
2026-05-05 14:19 -32.85324 -68.79317 3246 ft 157 kts 180°
2026-05-05 14:19 -32.86429 -68.79328 3793 ft 164 kts 179°
2026-05-05 14:19 -32.87648 -68.79343 3997 ft 186 kts 180°
2026-05-05 14:20 -32.89021 -68.79363 4189 ft 208 kts 179°
2026-05-05 14:20 -32.90542 -68.79315 4342 ft 229 kts 168°
2026-05-05 14:20 -32.91957 -68.78335 4508 ft 252 kts 128°
2026-05-05 14:20 -32.92680 -68.76387 5005 ft 266 kts 102°
2026-05-05 14:21 -32.92941 -68.74175 5690 ft 273 kts 94°
2026-05-05 14:21 -32.93093 -68.71887 6356 ft 282 kts 93°
2026-05-05 14:21 -32.93279 -68.69534 6984 ft 289 kts 95°
2026-05-05 14:21 -32.93541 -68.67149 7650 ft 293 kts 98°
2026-05-05 14:22 -32.94002 -68.63954 8509 ft 299 kts 100°
2026-05-05 14:22 -32.94275 -68.62302 8943 ft 302 kts 101°
2026-05-05 14:22 -32.94709 -68.59840 9595 ft 306 kts 102°
2026-05-05 14:22 -32.95158 -68.57376 10183 ft 311 kts 102°
2026-05-05 14:23 -32.95631 -68.54811 10747 ft 315 kts 102°
2026-05-05 14:23 -32.96096 -68.52281 11312 ft 320 kts 102°
2026-05-05 14:23 -32.96523 -68.49642 11778 ft 329 kts 93°
2026-05-05 14:23 -32.96175 -68.46976 12300 ft 329 kts 63°
2026-05-05 14:24 -32.94841 -68.44815 12854 ft 323 kts 34°
2026-05-05 14:24 -32.92875 -68.43546 13115 ft 327 kts
2026-05-05 14:24 -32.90607 -68.43453 13290 ft 330 kts 342°
2026-05-05 14:24 -32.88539 -68.44570 13735 ft 327 kts 319°
2026-05-05 14:25 -32.86778 -68.46296 14287 ft 329 kts 316°
2026-05-05 14:25 -32.85110 -68.48160 14887 ft 328 kts 307°
2026-05-05 14:25 -32.83839 -68.50403 15474 ft 327 kts 295°
2026-05-05 14:25 -32.83031 -68.52935 15964 ft 332 kts 283°
2026-05-05 14:26 -32.82739 -68.55663 16495 ft 336 kts 271°
2026-05-05 14:26 -32.82809 -68.58454 17078 ft 339 kts 269°
2026-05-05 14:26 -32.82883 -68.61261 17669 ft 341 kts 270°
2026-05-05 14:26 -32.82949 -68.64092 18252 ft 344 kts 270°
2026-05-05 14:27 -32.83010 -68.66945 18759 ft 346 kts 270°
2026-05-05 14:27 -32.83073 -68.69818 19240 ft 349 kts 270°
2026-05-05 14:27 -32.83138 -68.72717 19729 ft 352 kts 270°
2026-05-05 14:27 -32.83203 -68.75642 20210 ft 355 kts 270°
2026-05-05 14:28 -32.83269 -68.78584 20687 ft 358 kts 270°
2026-05-05 14:28 -32.83347 -68.81550 21165 ft 361 kts 269°
2026-05-05 14:28 -32.83451 -68.84543 21644 ft 364 kts 269°
2026-05-05 14:28 -32.83569 -68.87560 22117 ft 367 kts 268°
2026-05-05 14:29 -32.83691 -68.90609 22531 ft 371 kts 268°
2026-05-05 14:29 -32.83809 -68.93648 22979 ft 374 kts 268°
2026-05-05 14:29 -32.83925 -68.96753 23436 ft 377 kts 268°
2026-05-05 14:29 -32.84038 -68.99882 23819 ft 380 kts 269°
2026-05-05 14:30 -32.84150 -69.03034 24197 ft 382 kts 269°
2026-05-05 14:30 -32.84261 -69.06194 24592 ft 385 kts 269°
2026-05-05 14:30 -32.84372 -69.09386 24980 ft 387 kts 269°
2026-05-05 14:30 -32.84482 -69.12594 25355 ft 389 kts 269°
2026-05-05 14:31 -32.84591 -69.15816 25744 ft 391 kts 269°
2026-05-05 14:31 -32.84705 -69.19057 25934 ft 392 kts 268°
2026-05-05 14:31 -32.84843 -69.22258 25969 ft 384 kts 268°
2026-05-05 14:31 -32.84996 -69.25407 25972 ft 380 kts 268°
2026-05-05 14:32 -32.85158 -69.28543 26008 ft 380 kts 268°
2026-05-05 14:32 -32.85321 -69.31674 26009 ft 379 kts 268°
2026-05-05 14:32 -32.85478 -69.34807 26008 ft 379 kts 268°
2026-05-05 14:32 -32.85626 -69.37926 25997 ft 378 kts 268°
2026-05-05 14:33 -32.85768 -69.41042 26055 ft 378 kts 268°
2026-05-05 14:33 -32.85907 -69.44162 26064 ft 378 kts 268°
2026-05-05 14:33 -32.86044 -69.47284 26063 ft 379 kts 268°
2026-05-05 14:33 -32.86179 -69.50368 26045 ft 377 kts 268°
2026-05-05 14:34 -32.86319 -69.53480 26164 ft 377 kts 268°
2026-05-05 14:34 -32.86459 -69.56559 26126 ft 367 kts 269°
2026-05-05 14:34 -32.86597 -69.59575 26121 ft 364 kts 268°
2026-05-05 14:34 -32.86733 -69.62565 26125 ft 362 kts 268°
2026-05-05 14:35 -32.86866 -69.65558 26128 ft 361 kts 268°
2026-05-05 14:35 -32.86997 -69.68541 26180 ft 362 kts 268°
2026-05-05 14:35 -32.87125 -69.71517 26182 ft 361 kts 269°
2026-05-05 14:35 -32.87254 -69.74504 26182 ft 361 kts 269°
2026-05-05 14:36 -32.87383 -69.77485 26176 ft 361 kts 269°
2026-05-05 14:36 -32.87512 -69.80469 26214 ft 362 kts 269°
2026-05-05 14:36 -32.87640 -69.83452 26219 ft 362 kts 269°
2026-05-05 14:36 -32.87766 -69.86442 26262 ft 361 kts 269°
2026-05-05 14:37 -32.87891 -69.89425 26262 ft 361 kts 269°
2026-05-05 14:37 -32.88015 -69.92400 26253 ft 358 kts 269°
2026-05-05 14:37 -32.88137 -69.95352 26251 ft 356 kts 269°
2026-05-05 14:37 -32.88261 -69.98289 26249 ft 354 kts 269°
2026-05-05 14:38 -32.88384 -70.01207 26243 ft 354 kts 269°
2026-05-05 14:38 -32.88513 -70.04131 26239 ft 354 kts 269°
2026-05-05 14:38 -32.88648 -70.07055 26218 ft 354 kts 269°
2026-05-05 14:38 -32.88784 -70.09987 26210 ft 354 kts 269°
2026-05-05 14:39 -32.88917 -70.12906 26212 ft 353 kts 269°
2026-05-05 14:39 -32.89046 -70.15817 26193 ft 352 kts 269°
2026-05-05 14:39 -32.89173 -70.18725 26191 ft 352 kts 269°
2026-05-05 14:39 -32.89300 -70.21644 26143 ft 353 kts 270°
2026-05-05 14:40 -32.89426 -70.24557 26134 ft 352 kts 269°
2026-05-05 14:40 -32.89554 -70.27468 26133 ft 353 kts 270°
2026-05-05 14:40 -32.89681 -70.30384 26133 ft 353 kts 270°
2026-05-05 14:40 -32.89806 -70.33312 26134 ft 353 kts 270°
2026-05-05 14:41 -32.89929 -70.36232 26085 ft 354 kts 270°
2026-05-05 14:41 -32.90048 -70.39118 26081 ft 353 kts 270°
2026-05-05 14:41 -32.90169 -70.42066 26015 ft 360 kts 270°
2026-05-05 14:41 -32.90294 -70.45065 25365 ft 364 kts 270°
2026-05-05 14:42 -32.90420 -70.48046 24877 ft 356 kts 270°
2026-05-05 14:42 -32.90546 -70.50960 24500 ft 350 kts 270°
2026-05-05 14:42 -32.90667 -70.53829 24057 ft 346 kts 270°
2026-05-05 14:42 -32.90790 -70.56677 23585 ft 343 kts 271°
2026-05-05 14:43 -32.90921 -70.59502 23074 ft 340 kts 271°
2026-05-05 14:43 -32.91054 -70.62289 22586 ft 335 kts 271°
2026-05-05 14:43 -32.91185 -70.65042 22135 ft 331 kts 270°
2026-05-05 14:43 -32.91312 -70.67764 21680 ft 328 kts 271°
2026-05-05 14:44 -32.91437 -70.70466 21235 ft 325 kts 271°
2026-05-05 14:44 -32.91559 -70.73146 20779 ft 323 kts 271°
2026-05-05 14:44 -32.91692 -70.75805 20315 ft 323 kts 268°
2026-05-05 14:44 -32.92240 -70.78412 19868 ft 330 kts 252°
2026-05-05 14:45 -32.93430 -70.80779 19404 ft 340 kts 236°
2026-05-05 14:45 -32.95222 -70.82681 18921 ft 352 kts 219°
2026-05-05 14:45 -32.97452 -70.83966 18440 ft 359 kts 210°
2026-05-05 14:45 -32.99758 -70.85131 17885 ft 360 kts 210°
2026-05-05 14:46 -33.02055 -70.86303 17393 ft 358 kts 210°
2026-05-05 14:46 -33.04336 -70.87473 16953 ft 356 kts 209°
2026-05-05 14:46 -33.06596 -70.88633 16526 ft 353 kts 209°
2026-05-05 14:46 -33.08848 -70.89793 16107 ft 351 kts 209°
2026-05-05 14:47 -33.11086 -70.90949 15691 ft 349 kts 209°
2026-05-05 14:47 -33.13313 -70.92102 15286 ft 347 kts 209°
2026-05-05 14:47 -33.15527 -70.93245 14875 ft 345 kts 209°
2026-05-05 14:47 -33.17715 -70.94373 14472 ft 341 kts 208°
2026-05-05 14:48 -33.19934 -70.95377 14070 ft 342 kts 199°
2026-05-05 14:48 -33.22261 -70.95839 13649 ft 346 kts 186°